AGROMETEOROLOŠKI PORTAL

vinorodna pokrajina

Temelj dobrega kmetovanja

Pregled podatkov za lokacijo JERUZALEM - ARSO, meteorološka postaja 156

Pregled senzorjev na lokaciji

ID Ime Zadnja
vrednost
Datum in čas
meritve
(lokalni čas)
Tip
senzorja
5945 Padavine (mm) 0 mm 27.1.2023 01:30 ARSO
5947 Relativna zračna vlaga (2 m) (% RH) 98 % RH 27.1.2023 01:30 ARSO
5946 Temperatura (2 m) (°C) -0,9 °C 27.1.2023 01:30 ARSO

Pregled podatkov zadnjih 24 ur

Zap.
št.
Datum in čas
(lokalni čas)
JERUZALEM - ARSO
Padavine Relativna
zračna
vlaga
(2
m)
Temperatura
(2
m)
1 27.1.2023 01:30
2 27.1.2023 01:00 0 98 -0,9
3 27.1.2023 00:30 0 98 -0,8
4 27.1.2023 00:00 0 97,3 -0,9
5 26.1.2023 23:30 0 95,3 -0,9
6 26.1.2023 23:00 0 94,7 -1
7 26.1.2023 22:30 0 93,7 -0,9
8 26.1.2023 22:00 0 93 -0,9
9 26.1.2023 21:30 0 92,7 -0,9
10 26.1.2023 21:00 0 92 -0,8
11 26.1.2023 20:30 0 92 -0,8
12 26.1.2023 20:00 0 92 -0,9
13 26.1.2023 19:30 0 92,7 -0,9
14 26.1.2023 19:00 0 94,7 -1
15 26.1.2023 18:30 0 93,3 -0,7
16 26.1.2023 18:00 0 93,7 -0,6
17 26.1.2023 17:30 0 94,3 -0,4
18 26.1.2023 17:00 0,1 94 -0,2
19 26.1.2023 16:30 0 93 -0,1
20 26.1.2023 16:00 0 92,3 0
21 26.1.2023 15:30 0 90,3 0,2
22 26.1.2023 15:00 0 90 0,2
23 26.1.2023 14:30 0 91 0,3
24 26.1.2023 14:00 0 91,3 0,4
25 26.1.2023 13:30 0 93 0,4
26 26.1.2023 13:00 0 94 0,3
27 26.1.2023 12:30 0 94 0,3
28 26.1.2023 12:00 0 93,7 0,3
29 26.1.2023 11:30 0 93,7 0,1
30 26.1.2023 11:00 0 94,7 0,1
31 26.1.2023 10:30 0 93,3 0,2
32 26.1.2023 10:00 0 84,3 0,3
33 26.1.2023 09:30 0 82,7 0,1
34 26.1.2023 09:00 0 83,7 0
35 26.1.2023 08:30 0 83,7 -0,1
36 26.1.2023 08:00 0 90,7 -0,3
37 26.1.2023 07:30 0 98 -0,3
38 26.1.2023 07:00 0 99 -0,2
39 26.1.2023 06:30 0 98,7 -0,2
40 26.1.2023 06:00 0 98 -0,1
41 26.1.2023 05:30 0 98 0
42 26.1.2023 05:00 0 98 0,1
43 26.1.2023 04:30 0 98 0,2
44 26.1.2023 04:00 0 98 0,2
45 26.1.2023 03:30 0 98 0,3
46 26.1.2023 03:00 0 98,3 0,3
47 26.1.2023 02:30 0 99 0,3
48 26.1.2023 02:00 0 99 0,3